Location: Pic du Midi - T1M
(42.9366°N, 0.1426°E)
Time: 13:44:23
(UTC+01:00)

NOAA 15 - Visible Passes

Search period start: 20 September 2021 00:00
Search period end: 30 September 2021 00:00
Orbit: 797 x 812 km, 98.7° (Epoch: 20 September)

Date Brightness Start Highest point End Pass type
(mag) Time Alt. Az. Time Alt. Az. Time Alt. Az.
20 Sep 5.0 20:02:52 10° S 20:08:04 67° WSW 20:13:18 10° NNW visible
21 Sep 4.5 19:37:40 10° SSE 19:42:52 74° ENE 19:48:07 10° N visible
21 Sep 7.4 21:20:30 10° WSW 21:23:12 14° W 21:25:54 10° WNW visible
22 Sep 5.0 19:12:51 10° SE 19:17:46 44° ENE 19:22:44 10° N visible
22 Sep 6.8 20:53:32 10° SSW 20:57:43 24° W 21:01:56 10° NW visible
23 Sep 5.9 20:27:27 10° SSW 20:32:20 40° W 20:37:17 10° NNW visible
24 Sep 4.9 20:01:52 10° S 20:07:03 69° WSW 20:12:19 10° NNW visible
25 Sep 4.5 19:36:40 10° SSE 19:41:52 72° ENE 19:47:07 10° N visible
25 Sep 7.4 21:19:23 10° WSW 21:22:11 14° W 21:24:59 10° WNW visible
26 Sep 5.0 19:11:51 10° SE 19:16:46 43° ENE 19:21:43 10° N visible
26 Sep 6.7 20:52:29 10° SSW 20:56:42 25° W 21:00:58 10° NW visible
27 Sep 5.9 20:26:25 10° SSW 20:31:20 41° W 20:36:18 10° NNW visible
28 Sep 4.9 20:00:51 10° S 20:06:03 70° WSW 20:11:19 10° NNW visible
29 Sep 4.5 19:35:40 10° SSE 19:40:52 71° ENE 19:46:08 10° N visible
29 Sep 7.4 21:18:16 10° WSW 21:21:10 15° W 21:24:04 10° NW visible
